[[{"header":{"parameterUnit":"m.s-1","parameterCategory":1,"la1":30.2991,"la2":30.254,"lo1":-89.0895,"lo2":-89.0444,"dy":0.0017,"dx":0.0017,"nx":28,"ny":28,"refTime":"2026-02-06T03:00:00:Z","depth":0,"parameterNumber":2,"parameterNumberName":"U-component_of_WINDS"},"data":[0,0,0,0,0,0,0,0,0,0,0,0,0,0,0,0,0,0,0,0,0,0,0,0,0,0,0,0,0,0,0,0,0,0,0,0,0,0,0,0,0,0,0,0,0,0,0,0,0,0,0,0,0,0,0,0,0,0,3.3001,3.3002,0,3.3131,3.3132,3.3134,3.3066,3.3062,3.3059,3.3056,3.3191,3.3198,3.3204,0,0,0,0,0,0,0,0,0,0,0,0,0,3.2697,3.2703,3.3001,3.3003,3.3004,3.313,3.3132,3.3134,3.3066,3.3062,3.3058,3.3054,3.3189,3.3197,3.3205,0,0,0,0,0,0,0,0,0,0,0,0,0,3.2828,3.2705,3.3001,3.2986,3.2986,3.313,3.3132,3.3134,3.3067,3.3062,3.3057,3.3052,3.3186,3.3196,3.3206,3.3373,0,0,3.3237,3.3242,0,0,0,0,0,0,0,0,3.2821,3.2839,3.2986,3.2987,3.2987,3.3077,3.3074,3.3215,3.3069,3.3036,3.3056,3.305,3.3157,3.317,3.3205,3.338,3.3386,3.3238,3.3244,3.3249,3.3252,0,0,0,0,0,0,0,3.2812,3.2834,3.3052,3.2989,3.2989,3.2973,3.2986,3.3101,3.3125,3.3039,3.3034,3.305,3.3157,3.3196,3.3208,3.3387,3.3238,3.3247,3.3253,3.3257,3.3705,3.3711,0,0,0,0,0,0,3.2803,3.2826,3.3048,3.3056,3.2889,3.2983,3.2997,3.3053,3.3123,3.3129,3.3055,3.3047,3.3181,3.3196,3.3213,3.3413,3.3249,3.3258,3.3264,3.37,3.3707,3.3713,0,0,0,0,0,0,3.2797,3.2824,3.3043,3.294,3.2967,3.2994,3.3057,3.3059,3.3097,3.3135,3.3139,3.309,3.3177,3.3198,3.3334,3.3417,3.3263,3.3272,3.3693,3.3702,3.371,3.3815,0,0,0,0,0,0,3.2789,3.2822,3.2885,3.2942,3.2973,3.3162,3.3062,3.3065,3.3115,3.3106,3.3169,3.3175,3.3175,3.3319,3.3344,3.3428,3.328,3.3686,3.3697,3.3707,3.3805,3.3827,3.3845,0,0,0,0,0,3.2778,3.2911,3.2889,3.2916,3.3052,3.3167,3.3184,3.318,3.3122,3.3186,3.321,3.3173,3.3403,3.3333,3.3361,3.3449,3.368,3.3694,3.3706,3.3795,3.3822,3.3845,0,0,0,0,0,0,3.2864,3.2918,3.2894,3.3049,3.3104,3.3155,3.3236,3.3209,3.3282,3.3271,3.3264,3.3279,3.3419,3.3448,3.3369,3.3615,3.3533,3.3552,3.3591,3.3617,3.3637,3.3627,3.3289,0,0,0,0,0,3.2901,3.2988,3.3031,3.3163,3.3192,3.3209,3.3259,3.3251,3.3308,3.3331,3.3365,3.3422,3.3507,3.3563,3.3644,3.3808,3.3821,3.3883,3.3903,3.3919,3.3936,3.4025,3.4053,3.3755,3.3755,3.3755,0,0,3.2978,3.3018,3.3074,3.3182,3.3223,3.3314,3.3229,3.333,3.3398,3.3347,3.3476,3.3503,3.3567,3.3717,3.3785,3.3745,3.4021,3.3936,3.3949,3.3957,3.4041,3.407,3.4095,3.3764,3.3763,3.3761,0,0,3.3166,3.3205,3.3319,3.3362,3.3426,3.3436,3.3464,3.3519,3.3535,3.3665,3.3628,3.3709,3.3856,3.3903,3.3946,3.415,3.4119,3.4177,3.4283,3.437,3.4394,3.4414,3.4488,3.4514,3.4193,3.4193,3.4194,0,3.3254,3.339,3.3382,3.3485,3.3533,3.349,3.3606,3.3649,3.3736,3.377,3.3724,3.3907,3.3947,3.4107,3.4157,3.4193,3.4225,3.417,3.4391,3.4411,3.4431,3.45,3.4528,3.42,3.4199,3.4199,3.4198,0,3.3495,3.359,3.3675,3.3759,3.3817,3.3926,3.3935,3.3995,3.3982,3.3998,3.4131,3.4177,3.4266,3.4303,3.4292,3.4463,3.4436,3.4391,3.4308,3.4466,3.4531,3.4558,3.421,3.4207,3.4205,3.4204,0,0,3.3742,3.3819,3.3851,3.3888,3.3954,3.4028,3.4135,3.4221,3.4272,3.4334,3.4424,3.4549,3.4507,3.4556,3.455,3.4626,3.4785,3.4571,3.4572,3.4609,3.4976,3.501,3.5041,3.4764,3.4769,3.4773,3.4971,0,3.3934,3.4121,3.4117,3.4291,3.4378,3.4338,3.4431,3.4483,3.45,3.4577,3.4597,3.4686,3.4623,3.4653,3.4726,3.475,3.4859,3.4736,3.4849,3.4853,3.4835,3.5075,3.5112,3.5296,3.4996,3.5001,3.5004,0,3.4184,3.4252,3.4435,3.4488,3.4524,3.4608,3.4686,3.4761,3.4818,3.4825,3.488,3.4861,3.4971,3.4885,3.5036,3.4952,3.4998,3.5017,3.5024,3.5035,3.4938,3.5093,3.5355,3.5383,3.5044,3.5041,3.5038,0,3.4346,3.4483,3.461,3.4643,3.4708,3.4769,3.4799,3.485,3.4902,3.4971,3.5005,3.5086,3.513,3.5193,3.5197,3.5134,3.535,3.5264,3.536,3.536,3.5408,3.5405,3.5681,3.5437,3.5436,3.5436,3.5435,0,3.4561,3.4675,3.4684,3.4762,3.4888,3.4882,3.5007,3.5031,3.5078,3.516,3.513,3.5209,3.5209,3.5289,3.5293,3.5418,3.5438,3.5448,3.5447,3.5451,3.545,3.5481,3.5469,3.5443,3.5442,3.544,3.5439,0,3.4764,3.4774,3.491,3.496,3.4975,3.5066,3.5108,3.5183,3.5197,3.5302,3.5327,3.535,3.5442,3.5452,3.5561,3.5563,3.5714,3.57,3.5694,3.5692,3.5787,3.5778,3.6094,3.6135,3.5864,3.5866,3.5868,0,3.4901,3.4987,3.5045,3.5098,3.5131,3.5217,3.5269,3.5266,3.5322,3.5393,3.546,3.5549,3.5621,3.5771,3.5798,3.588,3.5868,3.5973,3.5881,3.5881,3.587,3.5865,3.5874,3.5991,3.5994,3.5997,3.5999,0,3.5143,3.5144,3.522,3.5298,3.5361,3.5423,3.5481,3.5526,3.553,3.5595,3.5689,3.5744,3.5854,3.5943,3.6025,3.6056,3.6029,3.6027,3.6054,3.6059,3.6052,3.6057,3.5744,3.602,3.6018,3.6017,3.6016,3.6015,3.5317,3.5392,3.5444,3.553,3.5573,3.5628,3.57,3.5723,3.5801,3.5889,3.5883,3.5987,3.6042,3.6148,3.6185,3.6267,3.6232,3.627,3.628,3.629,3.63,3.6038,3.6282,3.6281,3.628,3.628,3.6279,0,3.5558,3.559,3.5669,3.575,3.5818,3.5785,3.5847,3.5906,3.5997,3.605,3.6121,3.6229,3.6315,3.6348,3.6433,3.6492,3.6482,3.6514,3.651,3.6518,3.6326,3.6295,3.6521,3.6521,3.6521,3.6521,3.6521,3.6521,3.5692,3.5816,3.5823,3.5968,3.5999,3.61,3.6138,3.6188,3.623,3.6352,3.6423,3.6444,3.6489,3.6577,3.6655,3.6662,3.6695,3.6733,3.6736,3.6556,3.6531,3.6508,3.6479,3.674,3.6741,3.6921,3.6922,3.6924]},{"header":{"parameterUnit":"m.s-1","parameterCategory":1,"la1":30.2991,"la2":30.254,"lo1":-89.0895,"lo2":-89.0444,"dy":0.0017,"dx":0.0017,"nx":28,"ny":28,"refTime":"2026-02-06T03:00:00:Z","depth":0,"parameterNumber":3,"parameterNumberName":"V-component_of_WINDS"},"data":[0,0,0,0,0,0,0,0,0,0,0,0,0,0,0,0,0,0,0,0,0,0,0,0,0,0,0,0,0,0,0,0,0,0,0,0,0,0,0,0,0,0,0,0,0,0,0,0,0,0,0,0,0,0,0,0,0,0,1.4699,1.4699,0,1.4628,1.4627,1.4627,1.4563,1.4562,1.4561,1.4561,1.4486,1.4484,1.4483,0,0,0,0,0,0,0,0,0,0,0,0,0,1.4777,1.4776,1.4699,1.4699,1.4698,1.4628,1.4627,1.4626,1.4563,1.4562,1.4561,1.456,1.4486,1.4485,1.4483,0,0,0,0,0,0,0,0,0,0,0,0,0,1.4728,1.4776,1.47,1.4658,1.4653,1.4628,1.4627,1.4626,1.4563,1.4562,1.4561,1.456,1.4487,1.4485,1.4483,1.4493,0,0,1.4477,1.4476,0,0,0,0,0,0,0,0,1.4731,1.4726,1.4665,1.4661,1.4656,1.4603,1.4627,1.4581,1.4564,1.4597,1.4561,1.4559,1.4526,1.452,1.4509,1.4489,1.4486,1.4477,1.4475,1.4475,1.4474,0,0,0,0,0,0,0,1.4735,1.4728,1.4671,1.4664,1.4658,1.4641,1.4633,1.4618,1.4568,1.4594,1.459,1.4582,1.4523,1.4511,1.4507,1.4485,1.4477,1.4475,1.4474,1.4473,1.4467,1.4468,0,0,0,0,0,0,1.4745,1.4732,1.4673,1.4669,1.4691,1.4641,1.4632,1.4621,1.4569,1.4559,1.4583,1.4579,1.4515,1.4509,1.4504,1.4511,1.4475,1.4473,1.4472,1.4466,1.4467,1.4468,0,0,0,0,0,0,1.4747,1.474,1.4676,1.4699,1.4689,1.4641,1.4629,1.462,1.4609,1.456,1.4551,1.4581,1.4514,1.4507,1.4496,1.4507,1.4472,1.447,1.4465,1.4466,1.4468,1.4526,0,0,0,0,0,0,1.4749,1.4741,1.4746,1.47,1.4689,1.467,1.463,1.462,1.4606,1.46,1.4555,1.4547,1.4513,1.4499,1.4494,1.4504,1.4469,1.4463,1.4465,1.4467,1.4523,1.4529,1.4535,0,0,0,0,0,1.4752,1.4765,1.4746,1.474,1.4693,1.4671,1.4665,1.4626,1.4607,1.461,1.4579,1.4548,1.4507,1.4498,1.4492,1.4502,1.4462,1.4465,1.4467,1.452,1.4528,1.4534,0,0,0,0,0,0,1.4814,1.4758,1.4737,1.4735,1.4709,1.4661,1.4664,1.4636,1.4613,1.4609,1.4561,1.4551,1.4545,1.4522,1.4514,1.4507,1.448,1.4482,1.4523,1.453,1.4536,1.4541,1.4467,0,0,0,0,0,1.4827,1.4815,1.4767,1.477,1.4758,1.4713,1.4702,1.4674,1.4644,1.4632,1.46,1.4571,1.4551,1.4539,1.4519,1.4519,1.4507,1.4522,1.4528,1.4533,1.4535,1.4531,1.4536,1.4476,1.4476,1.4476,0,0,1.4855,1.4823,1.4818,1.4781,1.4757,1.4744,1.4704,1.4693,1.4682,1.463,1.4618,1.4593,1.4557,1.4551,1.4547,1.4532,1.4549,1.4536,1.4541,1.4539,1.4534,1.454,1.4545,1.4477,1.4477,1.4477,0,0,1.4898,1.4874,1.4873,1.4849,1.4813,1.4783,1.4783,1.4739,1.472,1.4707,1.4667,1.4653,1.4621,1.4596,1.458,1.4612,1.4582,1.4606,1.4638,1.4634,1.4639,1.4643,1.4653,1.4657,1.4608,1.4608,1.4608,0,1.4937,1.4917,1.4875,1.4866,1.485,1.4803,1.48,1.4779,1.4738,1.4728,1.4712,1.4669,1.4641,1.4628,1.4636,1.4624,1.4621,1.4611,1.4642,1.4645,1.4648,1.4657,1.4661,1.4611,1.4611,1.461,1.461,0,1.4965,1.4952,1.4955,1.4917,1.4901,1.4895,1.4851,1.484,1.4813,1.4785,1.477,1.4736,1.4706,1.4701,1.4675,1.4683,1.4675,1.4651,1.4623,1.4658,1.4665,1.4668,1.4615,1.4614,1.4613,1.4612,0,0,1.5046,1.4984,1.4986,1.4967,1.4923,1.4911,1.4902,1.4873,1.4864,1.4837,1.4827,1.4799,1.4776,1.4758,1.4728,1.4725,1.475,1.4701,1.47,1.471,1.4755,1.4772,1.4777,1.473,1.4731,1.4731,1.4757,0,1.5081,1.5064,1.5025,1.5019,1.5005,1.4959,1.495,1.4922,1.4894,1.4877,1.4845,1.4826,1.4799,1.4786,1.4782,1.4748,1.4758,1.4746,1.4719,1.4719,1.4729,1.4781,1.48,1.4826,1.476,1.4761,1.4761,0,1.5121,1.5096,1.5088,1.5043,1.5036,1.503,1.4999,1.4984,1.4949,1.4929,1.4907,1.4874,1.486,1.4834,1.4813,1.4806,1.4792,1.4774,1.4774,1.4769,1.4742,1.4777,1.4834,1.4838,1.4765,1.4765,1.4765,0,1.5179,1.5144,1.5134,1.5119,1.5067,1.5063,1.5041,1.5005,1.499,1.4963,1.4952,1.4924,1.4908,1.4886,1.4845,1.4831,1.4828,1.4799,1.4809,1.481,1.481,1.4811,1.4865,1.4803,1.4803,1.4803,1.4803,0,1.5222,1.5219,1.5159,1.5153,1.5148,1.5103,1.5098,1.5071,1.5039,1.5026,1.4984,1.4972,1.492,1.4901,1.4869,1.4855,1.4849,1.4831,1.4822,1.4834,1.4836,1.4824,1.4821,1.4804,1.4804,1.4804,1.4804,0,1.5286,1.5246,1.5232,1.5184,1.5171,1.5169,1.5126,1.5118,1.5087,1.507,1.5064,1.5015,1.4991,1.4948,1.4912,1.489,1.4882,1.4868,1.4894,1.4889,1.49,1.4899,1.4948,1.4951,1.4889,1.489,1.489,0,1.5316,1.5312,1.5262,1.5251,1.523,1.5212,1.5196,1.5151,1.5135,1.5095,1.5091,1.5063,1.5039,1.5002,1.4962,1.4933,1.4917,1.4936,1.4913,1.4924,1.4916,1.4916,1.4914,1.4942,1.4943,1.4943,1.4944,0,1.5372,1.5352,1.5331,1.5303,1.5285,1.526,1.5233,1.5226,1.5174,1.5158,1.5133,1.5114,1.5076,1.5049,1.5014,1.4989,1.4957,1.4952,1.4952,1.4964,1.4979,1.4969,1.4908,1.4951,1.495,1.495,1.4949,1.4949,1.5419,1.5413,1.5376,1.5354,1.5329,1.5304,1.5293,1.5261,1.5239,1.5205,1.5179,1.5156,1.5119,1.5069,1.5045,1.5025,1.501,1.5012,1.5011,1.5012,1.5016,1.4983,1.5018,1.5018,1.5018,1.5018,1.5017,0,1.5472,1.5446,1.5426,1.5389,1.537,1.5343,1.5311,1.5297,1.5277,1.5246,1.5222,1.5192,1.5164,1.5122,1.5091,1.5082,1.5067,1.5076,1.5075,1.507,1.5032,1.5034,1.5089,1.5089,1.5089,1.5089,1.5089,1.5089,1.5497,1.5485,1.546,1.5434,1.5408,1.5385,1.5369,1.5345,1.5319,1.5288,1.5265,1.5238,1.5201,1.5167,1.5139,1.5127,1.5117,1.513,1.5114,1.5079,1.5073,1.5066,1.5068,1.5129,1.5129,1.5153,1.5153,1.5153]}]]